When you browse on this site, cookies collect data to enhance your experience and personalize the content and advertising you see.
Visit our Privacy Policy to learn more. By continuing to use the site, you agree to this use of cookies and data.
  • In France
  • List of Countries
  • For 7 days
  • Water Temperature
  • Weather Map
  • Weather Widgets
  • user-avatar
    Login

    Hourly Weather Frankfurt am Mein

    Today, 30 March, Monday

    Time Temperature Precipitation Wind Pressure Humidity
    00:00 -4°C° 0 mm 4 mps 730 mmHg 74%
    01:00 -5°C° 0 mm 3 mps 731 mmHg 74%
    02:00 -5°C° 0 mm 3 mps 730 mmHg 73%
    03:00 -6°C° 0 mm 3 mps 730 mmHg 72%
    04:00 -5°C° 0 mm 2 mps 730 mmHg 71%
    05:00 -5°C° 0 mm 2 mps 730 mmHg 67%
    06:00 -5°C° 0 mm 2 mps 730 mmHg 63%
    07:00 -5°C° 0 mm 2 mps 730 mmHg 59%
    08:00 -3°C° 0 mm 2 mps 730 mmHg 51%
    09:00 -2°C° 0 mm 2 mps 730 mmHg 42%
    10:00 +1°C° 0 mm 2 mps 730 mmHg 33%
    11:00 +3°C° 0 mm 2 mps 730 mmHg 31%
    12:00 +4°C° 0 mm 2 mps 729 mmHg 29%
    13:00 +5°C° 0 mm 2 mps 729 mmHg 26%
    14:00 +6°C° 0 mm 2 mps 728 mmHg 30%
    15:00 +5°C° 0 mm 3 mps 728 mmHg 34%
    16:00 +7°C° 0 mm 3 mps 728 mmHg 37%
    17:00 +4°C° 0 mm 3 mps 727 mmHg 46%
    18:00 +4°C° 0 mm 2 mps 727 mmHg 55%
    19:00 +2°C° 0 mm 2 mps 727 mmHg 64%
    20:00 +2°C° 0 mm 2 mps 727 mmHg 70%
    21:00 +1°C° 0 mm 2 mps 727 mmHg 76%
    22:00 +1°C° 0 mm 1 mps 727 mmHg 82%
    23:00 -1°C° 0 mm 2 mps 728 mmHg 85%

    Tomorrow, 31 March, Tuesday

    Time Temperature Precipitation Wind Pressure Humidity
    00:00 -1°C° 0 mm 2 mps 728 mmHg 88%
    01:00 -1°C° 0 mm 2 mps 728 mmHg 91%
    02:00 -1°C° 0 mm 2 mps 728 mmHg 89%
    03:00 -1°C° 0 mm 3 mps 728 mmHg 87%
    04:00 -1°C° 0 mm 3 mps 728 mmHg 86%
    05:00 -2°C° 0 mm 3 mps 729 mmHg 85%
    06:00 -4°C° 0 mm 3 mps 729 mmHg 84%
    07:00 -4°C° 0 mm 3 mps 729 mmHg 83%
    08:00 -2°C° 0 mm 3 mps 730 mmHg 70%
    09:00 0°C° 0 mm 3 mps 730 mmHg 57%
    10:00 0°C° 0 mm 4 mps 730 mmHg 45%
    11:00 +2°C° 0 mm 3 mps 730 mmHg 42%
    12:00 +3°C° 0 mm 3 mps 730 mmHg 39%
    13:00 +4°C° 0 mm 3 mps 730 mmHg 36%
    14:00 +4°C° 0 mm 3 mps 730 mmHg 36%
    15:00 +4°C° 0 mm 3 mps 729 mmHg 37%
    16:00 +4°C° 0 mm 3 mps 729 mmHg 37%
    17:00 +3°C° 0 mm 3 mps 729 mmHg 42%
    18:00 +3°C° 0 mm 2 mps 729 mmHg 47%
    19:00 +1°C° 0 mm 2 mps 728 mmHg 52%
    20:00 -1°C° 0 mm 2 mps 729 mmHg 53%
    21:00 0°C° 0 mm 1 mps 729 mmHg 54%
    22:00 0°C° 0 mm 1 mps 729 mmHg 55%
    23:00 -1°C° 0 mm 1 mps 728 mmHg 55%

    Day after tomorrow, 1 April, Wednesday

    Time Temperature Precipitation Wind Pressure Humidity
    00:00 -1°C° 0 mm 1 mps 728 mmHg 56%
    01:00 -2°C° 0 mm 0 mps 728 mmHg 57%
    02:00 -3°C° 0 mm 0 mps 727 mmHg 58%
    03:00 -3°C° 0 mm 0 mps 727 mmHg 58%
    04:00 -3°C° 0 mm 0 mps 726 mmHg 59%
    05:00 -3°C° 0 mm 0 mps 726 mmHg 57%
    06:00 -2°C° 0 mm 0 mps 726 mmHg 56%
    07:00 -2°C° 0 mm 0 mps 726 mmHg 54%
    08:00 +1°C° 0 mm 0 mps 726 mmHg 48%
    09:00 +3°C° 0 mm 0 mps 726 mmHg 42%
    10:00 +5°C° 0 mm 0 mps 726 mmHg 36%
    11:00 +6°C° 0 mm 0 mps 726 mmHg 35%
    12:00 +7°C° 0 mm 0 mps 726 mmHg 34%
    13:00 +10°C° 0 mm 1 mps 725 mmHg 32%
    14:00 +10°C° 0 mm 1 mps 725 mmHg 33%
    15:00 +10°C° 0 mm 1 mps 724 mmHg 34%
    16:00 +9°C° 0 mm 1 mps 723 mmHg 36%
    17:00 +8°C° 0 mm 1 mps 723 mmHg 42%
    18:00 +6°C° 0 mm 1 mps 723 mmHg 49%
    19:00 +5°C° 0 mm 1 mps 723 mmHg 56%
    20:00 +4°C° 0 mm 1 mps 722 mmHg 61%
    21:00 +3°C° 0 mm 1 mps 722 mmHg 65%
    22:00 +2°C° 0 mm 1 mps 722 mmHg 70%
    23:00 +1°C° 0 mm 1 mps 722 mmHg 74%

    2 April, Thursday

    Time Temperature Precipitation Wind Pressure Humidity
    00:00 +1°C° 0 mm 1 mps 722 mmHg 78%
    01:00 0°C° 0 mm 1 mps 722 mmHg 83%
    02:00 0°C° 0 mm 1 mps 721 mmHg 84%
    03:00 0°C° 0 mm 1 mps 721 mmHg 85%
    04:00 -1°C° 0 mm 0 mps 721 mmHg 86%
    05:00 -1°C° 0 mm 0 mps 721 mmHg 85%
    06:00 -1°C° 0 mm 0 mps 721 mmHg 83%
    07:00 0°C° 0 mm 0 mps 721 mmHg 82%
    08:00 +2°C° 0 mm 0 mps 721 mmHg 73%
    09:00 +5°C° 0 mm 1 mps 721 mmHg 63%
    10:00 +7°C° 0 mm 1 mps 721 mmHg 53%
    11:00 +7°C° 0 mm 1 mps 721 mmHg 50%
    12:00 +8°C° 0 mm 1 mps 720 mmHg 47%
    13:00 +8°C° 0 mm 2 mps 720 mmHg 44%
    14:00 +8°C° 0 mm 2 mps 719 mmHg 44%
    15:00 +9°C° 0 mm 2 mps 719 mmHg 44%
    16:00 +9°C° 0 mm 3 mps 718 mmHg 44%
    17:00 +7°C° 0 mm 3 mps 718 mmHg 51%
    18:00 +6°C° 0 mm 2 mps 718 mmHg 58%
    19:00 +4°C° 0 mm 2 mps 718 mmHg 65%
    20:00 +4°C° 0 mm 2 mps 718 mmHg 70%
    21:00 +3°C° 0 mm 2 mps 718 mmHg 74%
    22:00 +2°C° 0 mm 2 mps 718 mmHg 78%
    23:00 +1°C° 0 mm 2 mps 718 mmHg 80%

    3 April, Friday

    Time Temperature Precipitation Wind Pressure Humidity
    00:00 +1°C° 0 mm 2 mps 718 mmHg 82%
    01:00 +1°C° 0 mm 2 mps 718 mmHg 84%
    02:00 +1°C° 0 mm 2 mps 718 mmHg 84%
    03:00 +1°C° 0 mm 2 mps 718 mmHg 85%
    04:00 +1°C° 0 mm 3 mps 718 mmHg 85%
    05:00 +2°C° 0 mm 2 mps 719 mmHg 86%
    06:00 +3°C° 0 mm 2 mps 720 mmHg 86%
    07:00 +3°C° 0 mm 2 mps 720 mmHg 87%
    08:00 +3°C° 0.1 mm 3 mps 721 mmHg 80%
    09:00 +3°C° 0.1 mm 3 mps 722 mmHg 74%
    10:00 +4°C° 0.1 mm 3 mps 722 mmHg 67%
    11:00 +5°C° 0 mm 3 mps 723 mmHg 59%
    12:00 +6°C° 0 mm 4 mps 723 mmHg 50%
    13:00 +7°C° 0 mm 4 mps 723 mmHg 41%
    14:00 +7°C° 0 mm 4 mps 724 mmHg 42%
    15:00 +8°C° 0 mm 4 mps 724 mmHg 42%
    16:00 +8°C° 0 mm 4 mps 724 mmHg 42%
    17:00 +7°C° 0 mm 3 mps 724 mmHg 47%
    18:00 +6°C° 0 mm 2 mps 725 mmHg 53%
    19:00 +4°C° 0 mm 2 mps 725 mmHg 58%
    20:00 +3°C° 0 mm 2 mps 725 mmHg 60%
    21:00 +3°C° 0 mm 1 mps 726 mmHg 62%
    22:00 +2°C° 0 mm 1 mps 727 mmHg 65%
    23:00 +2°C° 0 mm 1 mps 727 mmHg 67%

    4 April, Saturday

    Time Temperature Precipitation Wind Pressure Humidity
    00:00 +1°C° 0 mm 1 mps 727 mmHg 69%
    01:00 +1°C° 0 mm 1 mps 728 mmHg 71%
    02:00 0°C° 0 mm 1 mps 728 mmHg 73%
    03:00 0°C° 0 mm 1 mps 728 mmHg 75%
    04:00 -1°C° 0 mm 1 mps 728 mmHg 77%
    05:00 0°C° 0 mm 1 mps 728 mmHg 75%
    06:00 0°C° 0 mm 1 mps 728 mmHg 73%
    07:00 0°C° 0 mm 1 mps 729 mmHg 71%
    08:00 +1°C° 0 mm 2 mps 729 mmHg 64%
    09:00 +3°C° 0 mm 2 mps 729 mmHg 56%
    10:00 +5°C° 0 mm 3 mps 729 mmHg 48%
    11:00 +7°C° 0 mm 3 mps 729 mmHg 44%
    12:00 +8°C° 0 mm 3 mps 729 mmHg 41%
    13:00 +9°C° 0 mm 3 mps 729 mmHg 37%
    14:00 +10°C° 0 mm 3 mps 728 mmHg 37%
    15:00 +10°C° 0 mm 3 mps 728 mmHg 37%
    16:00 +11°C° 0 mm 3 mps 727 mmHg 37%
    17:00 +9°C° 0 mm 3 mps 727 mmHg 43%
    18:00 +8°C° 0 mm 2 mps 727 mmHg 49%
    19:00 +6°C° 0 mm 2 mps 727 mmHg 55%
    20:00 +5°C° 0 mm 2 mps 727 mmHg 57%
    21:00 +5°C° 0 mm 2 mps 727 mmHg 59%
    22:00 +4°C° 0 mm 2 mps 727 mmHg 61%
    23:00 +4°C° 0 mm 1 mps 727 mmHg 63%
    Show more